Printer-friendly version

IAU Minor Planet Center

Minor Planet Center

77P/Longmore

Orbital Elements

The following orbital elements are taken from MPC 56804:
77P/Longmore
Epoch 2009 June 18.0 TT = JDT 2455000.5
T 2009 July 7.8488 TT                                   MPC
q   2.310327             (2000.0)            P               Q
n   0.1443385      Peri.  196.6948      -0.8582259      +0.5021372
a   3.599272       Node    14.9167      -0.4109568      -0.5481246
e   0.358113       Incl.   24.3983      -0.3075106      -0.6688928
P   6.83
From 293 observations 1975-2003, mean residual 0".9.  Nongravitational
     parameters A1 = +0.04, A2 = -0.0579.
Elements are also available for the current standard epoch:
77P/Longmore
Epoch 2010 Jan. 4.0 TT = JDT 2455200.5
T 2009 July 7.8599 TT                                   MPC
q   2.310389             (2000.0)            P               Q
n   0.1443860      Peri.  196.6995      -0.8581785      +0.5022165
a   3.598481       Node    14.9174      -0.4110097      -0.5480769
e   0.357955       Incl.   24.3990      -0.3075721      -0.6688724
P   6.83
An explanation of the orbital elements is available.

These orbital elements are also available in forms suitable for loading into a number of popular planetarium-type software programs.


Ephemeris

The following ephemeris is at intervals of five days. A daily ephemeris covering the same time interval is also available.

Personalized ephemerides for this (and other) objects may be generated using the Minor Planet & Comet Ephemeris Service.

Recent magnitude estimates for this comet (as reported to the ICQ) may be available.

Date    TT    R. A. (2000) Decl.     Delta      r     Elong.  Phase   m1    m2

WARNING!

This comet gets close to the sun during the period covered in the ephemeris below. Observers are warned to be wary of observing comets near the sun. NEVER point any kind of optical instrument at the sun--instant blindness will be the probable result.

2009 10 26 15 12.80 -32 16.0 3.282 2.425 25.8 10.3 17.3 20.2 2009 10 31 15 23.81 -33 08.1 3.310 2.435 23.9 9.5 17.3 20.2 2009 11 05 15 35.00 -33 57.9 3.336 2.446 22.1 8.8 17.4 20.2 2009 11 10 15 46.37 -34 45.3 3.360 2.456 20.4 8.1 17.4 20.2 2009 11 15 15 57.92 -35 30.2 3.382 2.468 18.9 7.5 17.5 20.1 2009 11 20 16 09.61 -36 12.4 3.402 2.479 17.7 7.0 17.5 20.1 2009 11 25 16 21.45 -36 51.8 3.420 2.491 16.7 6.5 17.6 20.1 2009 11 30 16 33.41 -37 28.4 3.436 2.503 16.0 6.2 17.6 20.2 2009 12 05 16 45.47 -38 02.0 3.450 2.515 15.7 6.1 17.7 20.2 2009 12 10 16 57.63 -38 32.7 3.462 2.528 15.8 6.1 17.8 20.2 2009 12 15 17 09.85 -39 00.4 3.471 2.541 16.3 6.2 17.8 20.2 2009 12 20 17 22.12 -39 25.1 3.478 2.554 17.2 6.5 17.9 20.2 2009 12 25 17 34.42 -39 46.8 3.483 2.568 18.4 6.9 17.9 20.3 2009 12 30 17 46.70 -40 05.5 3.485 2.582 19.9 7.4 17.9 20.3 2010 01 04 17 58.96 -40 21.4 3.485 2.596 21.6 8.0 18.0 20.3 2010 01 09 18 11.18 -40 34.4 3.483 2.610 23.5 8.6 18.0 20.4 2010 01 14 18 23.31 -40 44.7 3.478 2.624 25.5 9.3 18.1 20.4 2010 01 19 18 35.35 -40 52.5 3.471 2.639 27.7 10.0 18.1 20.5 2010 01 24 18 47.26 -40 57.8 3.461 2.654 29.9 10.7 18.2 20.5 2010 01 29 18 59.02 -41 00.9 3.449 2.669 32.3 11.4 18.2 20.5 2010 02 03 19 10.61 -41 01.9 3.435 2.684 34.7 12.1 18.3 20.6 2010 02 08 19 22.01 -41 01.1 3.419 2.700 37.2 12.8 18.3 20.6 2010 02 13 19 33.20 -40 58.6 3.400 2.715 39.8 13.5 18.3 20.6 2010 02 18 19 44.17 -40 54.7 3.378 2.731 42.4 14.1 18.4 20.6 2010 02 23 19 54.88 -40 49.7 3.355 2.747 45.1 14.8 18.4 20.6 2010 02 28 20 05.33 -40 43.8 3.329 2.763 47.8 15.4 18.4 20.7 2010 03 05 20 15.50 -40 37.3 3.302 2.779 50.5 16.0 18.5 20.7 2010 03 10 20 25.39 -40 30.3 3.272 2.795 53.4 16.6 18.5 20.7 2010 03 15 20 34.97 -40 23.3 3.240 2.812 56.2 17.1 18.5 20.7 2010 03 20 20 44.23 -40 16.5 3.207 2.828 59.1 17.6 18.6 20.7 2010 03 25 20 53.15 -40 10.1 3.171 2.845 62.1 18.0 18.6 20.7 2010 03 30 21 01.73 -40 04.5 3.134 2.861 65.1 18.5 18.6 20.7 2010 04 04 21 09.95 -39 59.8 3.096 2.878 68.2 18.8 18.6 20.7 2010 04 09 21 17.80 -39 56.4 3.056 2.895 71.3 19.1 18.7 20.7 2010 04 14 21 25.26 -39 54.4 3.015 2.912 74.5 19.4 18.7 20.7 2010 04 19 21 32.31 -39 54.3 2.973 2.929 77.7 19.6 18.7 20.7 2010 04 24 21 38.93 -39 56.2 2.930 2.946 81.0 19.7 18.7 20.7 2010 04 29 21 45.12 -40 00.2 2.887 2.963 84.4 19.8 18.7 20.7 2010 05 04 21 50.84 -40 06.6 2.843 2.980 87.8 19.8 18.8 20.6 2010 05 09 21 56.07 -40 15.6 2.799 2.998 91.3 19.7 18.8 20.6 2010 05 14 22 00.78 -40 27.2 2.756 3.015 94.9 19.5 18.8 20.6 2010 05 19 22 04.95 -40 41.7 2.712 3.032 98.5 19.3 18.8 20.6 2010 05 24 22 08.55 -40 58.9 2.670 3.049 102.2 18.9 18.8 20.5 2010 05 29 22 11.54 -41 18.9 2.629 3.067 106.0 18.5 18.8 20.5 2010 06 03 22 13.90 -41 41.5 2.589 3.084 109.8 18.0 18.8 20.4 2010 06 08 22 15.59 -42 06.5 2.551 3.102 113.7 17.4 18.9 20.4 2010 06 13 22 16.58 -42 33.8 2.516 3.119 117.6 16.8 18.9 20.4 2010 06 18 22 16.83 -43 02.9 2.483 3.136 121.5 16.0 18.9 20.3 2010 06 23 22 16.34 -43 33.2 2.454 3.154 125.4 15.2 18.9 20.3 2010 06 28 22 15.10 -44 04.1 2.428 3.171 129.3 14.4 19.0 20.2 2010 07 03 22 13.09 -44 35.0 2.407 3.188 133.0 13.5 19.0 20.2 2010 07 08 22 10.34 -45 04.9 2.390 3.206 136.7 12.6 19.0 20.2 2010 07 13 22 06.88 -45 33.1 2.377 3.223 140.0 11.7 19.0 20.1 2010 07 18 22 02.75 -45 58.4 2.370 3.240 143.0 10.9 19.1 20.1 2010 07 23 21 58.05 -46 20.1 2.369 3.258 145.6 10.2 19.1 20.1 2010 07 28 21 52.89 -46 37.3 2.373 3.275 147.4 9.6 19.2 20.1 2010 08 02 21 47.38 -46 49.3 2.384 3.292 148.6 9.3 19.2 20.1 2010 08 07 21 41.65 -46 55.6 2.400 3.309 148.8 9.1 19.3 20.1 2010 08 12 21 35.87 -46 55.7 2.423 3.327 148.1 9.3 19.4 20.1 2010 08 17 21 30.17 -46 49.6 2.452 3.344 146.6 9.6 19.4 20.2 2010 08 22 21 24.72 -46 37.4 2.487 3.361 144.4 10.1 19.5 20.3 2010 08 27 21 19.63 -46 19.3 2.527 3.378 141.6 10.7 19.6 20.3 2010 09 01 21 15.01 -45 55.7 2.574 3.395 138.3 11.4 19.7 20.4 2010 09 06 21 10.95 -45 27.3 2.626 3.412 134.8 12.1 19.8 20.5 2010 09 11 21 07.50 -44 54.5 2.683 3.429 131.0 12.8 19.8 20.6 2010 09 16 21 04.71 -44 18.0 2.745 3.446 127.1 13.5 19.9 20.7 2010 09 21 21 02.59 -43 38.5 2.811 3.462 123.1 14.1 20.0 20.7 2010 09 26 21 01.14 -42 56.5 2.880 3.479 119.0 14.6 20.1 20.8 2010 10 01 21 00.34 -42 12.5 2.954 3.496 114.9 15.1 20.2 20.9 2010 10 06 21 00.16 -41 26.9 3.030 3.512 110.8 15.4 20.3 21.0 2010 10 11 21 00.59 -40 40.2 3.109 3.529 106.8 15.7 20.4 21.1 2010 10 16 21 01.57 -39 52.7 3.190 3.545 102.7 15.9 20.5 21.1 2010 10 21 21 03.07 -39 04.5 3.273 3.562 98.7 16.0 20.6 21.2 2010 10 26 21 05.05 -38 16.0 3.357 3.578 94.7 16.1 20.7 21.3 2010 10 31 21 07.47 -37 27.3 3.442 3.595 90.7 16.0 20.8 21.3 2010 11 05 21 10.28 -36 38.5 3.528 3.611 86.8 15.9 20.9 21.4 2010 11 10 21 13.45 -35 49.7 3.614 3.627 82.9 15.7 21.0 21.4 2010 11 15 21 16.95 -35 00.9 3.699 3.643 79.0 15.5 21.1 21.5 2010 11 20 21 20.74 -34 12.3 3.784 3.659 75.2 15.1 21.2 21.5 2010 11 25 21 24.79 -33 23.8 3.868 3.675 71.4 14.8 21.2 21.6 2010 11 30 21 29.07 -32 35.5 3.951 3.691 67.7 14.3 21.3 21.6

Valid HTML 4.01!